NI4CE-10 Weather Reports


time (UTC)temp
F
wind
direction
speed
knots
gust
knots
rain 1hr
in
rain 24hr
in
rain mn
in
humidity
%
barometer
mb
20260505235310 79 336 1.7 6.1 0.00 0.00 0.00 100 1017.0
20260505235045 79 336 1.7 6.1 0.00 0.00 0.00 100 1017.0
20260505234923 80 358 2.6 6.1 0.00 0.00 0.00 100 1016.9
20260505234812 80 358 2.6 6.1 0.00 0.00 0.00 100 1016.9
20260505234545 80 358 2.6 6.1 0.00 0.00 0.00 100 1016.9
20260505234529 80 350 3.5 7.8 0.00 0.00 0.00 100 1016.7
20260505234457 80 350 3.5 7.8 0.00 0.00 0.00 100 1016.7
20260505234045 80 350 3.5 7.8 0.00 0.00 0.00 100 1016.7
20260505233952 81 2 0.0 6.1 0.00 0.00 0.00 100 1016.7
20260505233545 81 2 0.0 6.1 0.00 0.00 0.00 100 1016.7
20260505233457 82 1 0.9 6.1 0.00 0.00 0.00 100 1016.8
20260505233329 82 1 0.9 6.1 0.00 0.00 0.00 100 1016.8
20260505233045 82 1 0.9 6.1 0.00 0.00 0.00 100 1016.8
20260505233026 82 7 3.5 9.6 0.00 0.00 0.00 100 1016.7
20260505232838 82 7 3.5 9.6 0.00 0.00 0.00 100 1016.7
20260505232545 82 7 3.5 9.6 0.00 0.00 0.00 100 1016.7
20260505232317 83 337 5.2 9.6 0.00 0.00 0.00 100 1016.7
20260505232045 83 337 5.2 9.6 0.00 0.00 0.00 100 1016.7
20260505231933 83 307 7.0 10.4 0.00 0.00 0.00 100 1016.6
20260505231858 83 307 7.0 10.4 0.00 0.00 0.00 100 1016.6
20260505231545 83 307 7.0 10.4 0.00 0.00 0.00 100 1016.6
20260505231120 83 14 3.5 9.6 0.00 0.00 0.00 100 1016.6
20260505231045 83 14 3.5 9.6 0.00 0.00 0.00 100 1016.6
20260505230817 83 347 4.3 7.8 0.00 0.00 0.00 100 1016.6
20260505230545 83 347 4.3 7.8 0.00 0.00 0.00 100 1016.6
20260505230228 83 284 2.6 8.7 0.00 0.00 0.00 100 1016.6
20260505230045 83 284 2.6 8.7 0.00 0.00 0.00 100 1016.6
20260505230035 83 289 2.6 7.8 0.00 0.00 0.00 100 1016.6
20260505225728 83 289 2.6 7.8 0.00 0.00 0.00 100 1016.6
20260505225545 83 289 2.6 7.8 0.00 0.00 0.00 100 1016.6
20260505225045 83 271 2.6 7.0 0.00 0.00 0.00 100 1016.5
20260505224935 83 264 2.6 8.7 0.00 0.00 0.00 100 1016.6
20260505224546 83 264 2.6 8.7 0.00 0.00 0.00 100 1016.6
20260505224046 83 257 3.5 9.6 0.00 0.00 0.00 100 1016.5
20260505224018 84 286 1.7 7.8 0.00 0.00 0.00 100 1016.5
20260505223546 84 286 1.7 7.8 0.00 0.00 0.00 100 1016.5
20260505223046 84 312 4.3 9.6 0.00 0.00 0.00 100 1016.5
20260505222814 83 293 6.1 9.6 0.00 0.00 0.00 100 1016.4
20260505222546 83 293 6.1 9.6 0.00 0.00 0.00 100 1016.4
20260505222520 84 278 5.2 9.6 0.00 0.00 0.00 100 1016.3
20260505222046 84 278 5.2 9.6 0.00 0.00 0.00 100 1016.3
20260505221810 84 323 2.6 11.3 0.00 0.00 0.00 100 1016.3
20260505221546 84 323 2.6 11.3 0.00 0.00 0.00 100 1016.3
20260505221301 84 284 3.5 9.6 0.00 0.00 0.00 100 1016.4
20260505221046 84 284 3.5 9.6 0.00 0.00 0.00 100 1016.4
20260505220546 85 278 7.8 9.6 0.00 0.00 0.00 100 1016.4
20260505220046 85 289 6.1 10.4 0.00 0.00 0.00 100 1016.3
20260505215812 86 267 5.2 9.6 0.00 0.00 0.00 100 1016.3
20260505215546 86 267 5.2 9.6 0.00 0.00 0.00 100 1016.3
20260505215046 86 300 5.2 10.4 0.00 0.00 0.00 100 1016.3
20260505214744 87 23 1.7 6.1 0.00 0.00 0.00 100 1016.1
20260505214546 87 282 2.6 11.3 0.00 0.00 0.00 100 1016.2
20260505214046 87 264 5.2 7.8 0.00 0.00 0.00 100 1016.2
20260505213642 88 309 5.2 8.7 0.00 0.00 0.00 100 1016.1
20260505213546 88 309 5.2 8.7 0.00 0.00 0.00 100 1016.1
20260505213046 87 23 1.7 6.1 0.00 0.00 0.00 100 1016.1
20260505213002 88 85 2.6 4.3 0.00 0.00 0.00 100 1016.1
20260505212546 87 262 3.5 6.1 0.00 0.00 0.00 100 1016.0
20260505212311 88 310 0.0 4.3 0.00 0.00 0.00 100 1016.1
20260505212046 88 310 0.0 4.3 0.00 0.00 0.00 100 1016.1
20260505211546 89 146 0.0 4.3 0.00 0.00 0.00 100 1016.1
20260505211046 88 85 2.6 4.3 0.00 0.00 0.00 100 1016.1
20260505210921 92 37 0.0 0.0 0.00 0.00 0.00 100 1016.1
20260505210546 92 37 0.0 0.0 0.00 0.00 0.00 100 1016.1
20260505210046 91 37 0.0 2.6 0.00 0.00 0.00 100 1016.1
20260505205952 91 11 0.0 4.3 0.00 0.00 0.00 100 1016.0
20260505205546 91 11 0.0 4.3 0.00 0.00 0.00 100 1016.0
20260505205110 90 165 1.7 2.6 0.00 0.00 0.00 100 1016.1
20260505205046 90 316 1.7 2.6 0.00 0.00 0.00 100 1016.1
20260505204546 89 74 1.7 5.2 0.00 0.00 0.00 100 1016.1
20260505204137 90 165 1.7 2.6 0.00 0.00 0.00 100 1016.1
20260505204046 90 165 1.7 2.6 0.00 0.00 0.00 100 1016.1
20260505203804 90 7 0.0 1.7 0.00 0.00 0.00 100 1016.2
20260505203546 90 7 0.0 1.7 0.00 0.00 0.00 100 1016.2
20260505203217 90 40 0.0 1.7 0.00 0.00 0.00 100 1016.2
20260505203046 90 40 0.0 1.7 0.00 0.00 0.00 100 1016.2
20260505202546 88 43 0.0 6.1 0.00 0.00 0.00 100 1016.3
20260505202204 89 116 3.5 5.2 0.00 0.00 0.00 100 1016.4
20260505202132 89 116 3.5 5.2 0.00 0.00 0.00 100 1016.4
20260505202046 89 116 3.5 5.2 0.00 0.00 0.00 100 1016.4
20260505201640 88 88 3.5 5.2 0.00 0.00 0.00 100 1016.4
20260505201546 88 88 3.5 5.2 0.00 0.00 0.00 100 1016.4
20260505201147 88 99 0.0 6.1 0.00 0.00 0.00 100 1016.5
20260505201046 88 99 0.0 6.1 0.00 0.00 0.00 100 1016.5
20260505200546 89 164 5.2 6.1 0.00 0.00 0.00 100 1016.5
20260505200046 89 82 0.0 7.8 0.00 0.00 0.00 100 1016.5
20260505195959 88 122 3.5 7.0 0.00 0.00 0.00 100 1016.6
20260505195710 89 158 5.2 6.1 0.00 0.00 0.00 100 1016.5
20260505195546 89 158 5.2 6.1 0.00 0.00 0.00 100 1016.5
20260505195207 89 272 0.0 7.0 0.00 0.00 0.00 100 1016.4
20260505195118 89 272 0.0 7.0 0.00 0.00 0.00 100 1016.4
20260505195046 89 272 0.0 7.0 0.00 0.00 0.00 100 1016.4
20260505194546 88 122 3.5 7.0 0.00 0.00 0.00 100 1016.6
20260505194151 88 154 3.5 6.1 0.00 0.00 0.00 100 1016.6
20260505194046 88 154 3.5 6.1 0.00 0.00 0.00 100 1016.6
20260505193651 89 102 1.7 5.2 0.00 0.00 0.00 100 1016.6
20260505193546 89 102 1.7 5.2 0.00 0.00 0.00 100 1016.6
20260505193156 89 46 0.0 7.0 0.00 0.00 0.00 100 1016.6
20260505193136 89 22 4.3 7.8 0.00 0.00 0.00 100 1016.6
20260505193046 89 46 0.0 7.0 0.00 0.00 0.00 100 1016.6
20260505192546 89 22 4.3 7.8 0.00 0.00 0.00 100 1016.6
20260505192506 88 78 0.0 7.0 0.00 0.00 0.00 100 1016.7
20260505192144 89 216 0.0 5.2 0.00 0.00 0.00 100 1016.6
20260505192046 89 216 0.0 5.2 0.00 0.00 0.00 100 1016.6
20260505191642 88 78 0.0 7.0 0.00 0.00 0.00 100 1016.7
20260505191546 88 78 0.0 7.0 0.00 0.00 0.00 100 1016.7
20260505191314 88 74 2.6 7.0 0.00 0.00 0.00 100 1016.9
20260505191202 88 74 2.6 7.0 0.00 0.00 0.00 100 1016.9
20260505191046 88 74 2.6 7.0 0.00 0.00 0.00 100 1016.9
20260505190715 88 227 0.9 7.0 0.00 0.00 0.00 100 1016.9
20260505190546 88 227 0.9 7.0 0.00 0.00 0.00 100 1016.9
20260505190207 88 150 0.0 2.6 0.00 0.00 0.00 100 1016.9
20260505190046 88 150 0.0 2.6 0.00 0.00 0.00 100 1016.9
20260505185819 88 149 2.6 7.8 0.00 0.00 0.00 100 1016.9
20260505185547 88 149 2.6 7.8 0.00 0.00 0.00 100 1016.9
20260505185142 90 336 0.0 6.1 0.00 0.00 0.00 100 1016.9
20260505185047 90 336 0.0 6.1 0.00 0.00 0.00 100 1016.9
20260505184715 87 25 0.9 7.0 0.00 0.00 0.00 100 1017.0
20260505184547 87 25 0.9 7.0 0.00 0.00 0.00 100 1017.0
20260505184047 88 88 3.5 7.0 0.00 0.00 0.00 100 1017.1
20260505183651 88 129 0.0 7.0 0.00 0.00 0.00 100 1017.1
20260505183628 89 104 4.3 6.1 0.00 0.00 0.00 100 1017.1
20260505183547 88 129 0.0 7.0 0.00 0.00 0.00 100 1017.1
20260505183215 89 104 4.3 6.1 0.00 0.00 0.00 100 1017.1
20260505183047 89 104 4.3 6.1 0.00 0.00 0.00 100 1017.1
20260505182717 87 123 3.5 7.8 0.00 0.00 0.00 100 1017.2
20260505182547 87 123 3.5 7.8 0.00 0.00 0.00 100 1017.2
20260505182215 86 91 4.3 7.8 0.00 0.00 0.00 100 1017.4
20260505182047 86 91 4.3 7.8 0.00 0.00 0.00 100 1017.4
20260505181643 86 92 1.7 7.0 0.00 0.00 0.00 100 1017.5
20260505181547 86 92 1.7 7.0 0.00 0.00 0.00 100 1017.5
20260505181239 89 33 0.0 4.3 0.00 0.00 0.00 100 1017.5
20260505181047 89 33 0.0 4.3 0.00 0.00 0.00 100 1017.5
20260505180547 89 165 3.5 6.1 0.00 0.00 0.00 100 1017.5
20260505180317 89 146 4.3 7.8 0.00 0.00 0.00 100 1017.6
20260505180047 89 146 4.3 7.8 0.00 0.00 0.00 100 1017.6
20260505175547 88 32 0.9 5.2 0.00 0.00 0.00 100 1017.7
20260505175202 87 99 5.2 8.7 0.00 0.00 0.00 100 1017.7
20260505175047 87 99 5.2 8.7 0.00 0.00 0.00 100 1017.7
20260505174811 87 61 1.7 7.8 0.00 0.00 0.00 100 1017.6
20260505174547 87 61 1.7 7.8 0.00 0.00 0.00 100 1017.6
20260505174321 86 136 5.2 7.0 0.00 0.00 0.00 100 1017.8
20260505174047 86 136 5.2 7.0 0.00 0.00 0.00 100 1017.8
20260505173547 86 98 2.6 7.0 0.00 0.00 0.00 100 1017.9
20260505173217 87 161 4.3 7.0 0.00 0.00 0.00 100 1017.9
20260505173047 87 161 4.3 7.0 0.00 0.00 0.00 100 1017.9
20260505172547 88 95 3.5 7.0 0.00 0.00 0.00 100 1018.0
20260505172147 85 175 0.9 4.3 0.00 0.00 0.00 100 1018.0
20260505172047 85 175 0.9 4.3 0.00 0.00 0.00 100 1018.0
20260505171643 86 42 0.0 4.3 0.00 0.00 0.00 100 1018.1
20260505171547 86 42 0.0 4.3 0.00 0.00 0.00 100 1018.1
20260505171203 83 85 1.7 5.2 0.00 0.00 0.00 100 1018.2
20260505171047 83 85 1.7 5.2 0.00 0.00 0.00 100 1018.2
20260505170547 83 84 2.6 7.0 0.00 0.00 0.00 100 1018.2
20260505170047 84 74 3.5 7.0 0.00 0.00 0.00 100 1018.2
20260505165754 83 59 3.5 7.0 0.00 0.00 0.00 100 1018.1
20260505165547 83 59 3.5 7.0 0.00 0.00 0.00 100 1018.1
20260505165047 83 90 3.5 6.1 0.00 0.00 0.00 100 1018.2
20260505164713 83 111 1.7 7.0 0.00 0.00 0.00 100 1018.2
20260505164547 83 111 1.7 7.0 0.00 0.00 0.00 100 1018.2
20260505164208 85 123 0.9 9.6 0.00 0.00 0.00 100 1018.3
20260505164047 85 123 0.9 9.6 0.00 0.00 0.00 100 1018.3
20260505163810 83 142 6.1 6.1 0.00 0.00 0.00 100 1018.3
20260505163547 83 142 6.1 6.1 0.00 0.00 0.00 100 1018.3
20260505163332 85 187 1.7 9.6 0.00 0.00 0.00 100 1018.3
20260505163047 85 187 1.7 9.6 0.00 0.00 0.00 100 1018.3
20260505162657 84 81 8.7 9.6 0.00 0.00 0.00 100 1018.3
20260505162547 84 81 8.7 9.6 0.00 0.00 0.00 100 1018.3
20260505162047 86 80 3.5 6.1 0.00 0.00 0.00 100 1018.2
20260505161711 85 80 6.1 7.8 0.00 0.00 0.00 100 1018.2
20260505161547 85 80 6.1 7.8 0.00 0.00 0.00 100 1018.2
20260505161047 83 153 3.5 8.7 0.00 0.00 0.00 100 1018.3
20260505160657 82 112 0.0 9.6 0.00 0.00 0.00 100 1018.4
20260505160547 82 112 0.0 9.6 0.00 0.00 0.00 100 1018.4
20260505160257 83 87 6.1 9.6 0.00 0.00 0.00 100 1018.4
20260505153135 80 112 4.3 8.7 0.00 0.00 0.00 100 1018.6
20260505153047 80 112 4.3 8.7 0.00 0.00 0.00 100 1018.6
20260505152654 80 111 5.2 7.0 0.00 0.00 0.00 100 1018.7
20260505152547 80 111 5.2 7.0 0.00 0.00 0.00 100 1018.7
20260505152047 81 164 3.5 8.7 0.00 0.00 0.00 100 1018.6
20260505151712 81 150 6.1 9.6 0.00 0.00 0.00 100 1018.6
20260505151547 81 150 6.1 9.6 0.00 0.00 0.00 100 1018.6
20260505151238 82 90 5.2 10.4 0.00 0.00 0.00 100 1018.7
20260505151047 82 90 5.2 10.4 0.00 0.00 0.00 100 1018.7
20260505150654 83 82 5.2 9.6 0.00 0.00 0.00 100 1018.7
20260505150547 83 82 5.2 9.6 0.00 0.00 0.00 100 1018.7
20260505150310 81 81 5.2 11.3 0.00 0.00 0.00 100 1018.7
20260505140548 79 135 8.7 10.4 0.00 0.00 0.00 100 1018.1
20260505124832 75 120 3.5 7.8 0.00 0.00 0.00 100 1017.9
20260505124548 75 120 3.5 7.8 0.00 0.00 0.00 100 1017.9
20260505124048 75 81 2.6 7.0 0.00 0.00 0.00 100 1017.9
20260505123834 74 80 3.5 7.0 0.00 0.00 0.00 100 1017.9
20260505123634 73 91 3.5 6.1 0.00 0.00 0.00 100 1017.9
20260505123548 74 80 3.5 7.0 0.00 0.00 0.00 100 1017.9
20260505123513 73 91 3.5 6.1 0.00 0.00 0.00 100 1017.9
20260505123048 73 91 3.5 6.1 0.00 0.00 0.00 100 1017.9
20260505123022 73 94 5.2 6.1 0.00 0.00 0.00 100 1018.0
20260505122548 73 94 5.2 6.1 0.00 0.00 0.00 100 1018.0
20260505122048 73 149 5.2 7.0 0.00 0.00 0.00 100 1017.9
20260505121738 70 144 1.7 6.1 0.00 0.00 0.00 100 1017.7
20260505121548 72 118 2.6 5.2 0.00 0.00 0.00 100 1017.9
20260505121048 72 87 2.6 4.3 0.00 0.00 0.00 100 1017.9
20260505120617 70 144 1.7 6.1 0.00 0.00 0.00 100 1017.7
20260505120548 71 106 2.6 5.2 0.00 0.00 0.00 100 1017.8
20260505120048 70 144 1.7 6.1 0.00 0.00 0.00 100 1017.7
20260505115548 70 91 4.3 6.1 0.00 0.00 0.00 100 1017.7
20260505115048 70 109 2.6 5.2 0.00 0.00 0.00 100 1017.6
20260505114548 69 67 1.7 5.2 0.00 0.00 0.00 100 1017.5
20260505114229 68 71 2.6 4.3 0.00 0.00 0.00 100 1017.4
20260505114048 68 71 2.6 4.3 0.00 0.00 0.00 100 1017.4
20260505113548 68 97 0.9 3.5 0.00 0.00 0.00 100 1017.2
20260505113412 67 66 0.0 0.0 0.00 0.00 0.00 100 1017.1
20260505113136 66 66 0.0 0.0 0.00 0.00 0.00 100 1017.2
20260505113048 67 66 0.0 0.0 0.00 0.00 0.00 100 1017.1
20260505113040 65 85 0.0 2.6 0.00 0.00 0.00 100 1017.0
20260505112548 66 66 0.0 0.0 0.00 0.00 0.00 100 1017.2
20260505112059 65 75 0.0 3.5 0.00 0.00 0.00 100 1017.1
20260505112048 65 85 0.0 2.6 0.00 0.00 0.00 100 1017.0
20260505111852 65 75 0.0 3.5 0.00 0.00 0.00 100 1017.1
20260505111548 65 75 0.0 3.5 0.00 0.00 0.00 100 1017.1
20260505111048 65 88 1.7 4.3 0.00 0.00 0.00 100 1016.9
20260505110548 65 57 2.6 4.3 0.00 0.00 0.00 100 1017.0
20260505102215 64 47 0.0 2.6 0.00 0.00 0.00 100 1016.8
20260505102049 64 47 0.0 2.6 0.00 0.00 0.00 100 1016.8
20260505101828 64 70 0.0 0.0 0.00 0.00 0.00 100 1016.6
20260505101549 64 67 0.9 2.6 0.00 0.00 0.00 100 1016.7
20260505101049 64 70 0.0 0.0 0.00 0.00 0.00 100 1016.6
20260505101027 64 70 0.0 0.0 0.00 0.00 0.00 100 1016.5
20260505100821 64 70 0.0 0.0 0.00 0.00 0.00 100 1016.7
20260505100549 64 70 0.0 0.0 0.00 0.00 0.00 100 1016.7
20260505100049 64 70 0.0 0.0 0.00 0.00 0.00 100 1016.6
20260505095549 64 70 0.0 0.0 0.00 0.00 0.00 100 1016.5
20260505095455 64 70 0.0 0.0 0.00 0.00 0.00 100 1016.5
20260505095054 64 33 0.0 2.6 0.00 0.00 0.00 100 1016.5
20260505095049 64 70 0.0 0.0 0.00 0.00 0.00 100 1016.5
20260505094549 64 33 0.0 2.6 0.00 0.00 0.00 100 1016.5
20260505094049 64 68 1.7 2.6 0.00 0.00 0.00 100 1016.5
20260505093549 64 53 0.0 2.6 0.00 0.00 0.00 100 1016.4
20260505093255 64 95 0.9 1.7 0.00 0.00 0.00 100 1016.4
20260505093049 64 95 0.9 1.7 0.00 0.00 0.00 100 1016.4
20260505092549 64 95 0.9 1.7 0.00 0.00 0.00 100 1016.4
20260505092049 64 73 0.0 2.6 0.00 0.00 0.00 100 1016.4
20260505091549 64 59 0.0 2.6 0.00 0.00 0.00 100 1016.3
20260505091335 64 59 0.9 2.6 0.00 0.00 0.00 100 1016.2
20260505091049 64 59 0.9 2.6 0.00 0.00 0.00 100 1016.2
20260505090549 64 94 0.9 1.7 0.00 0.00 0.00 100 1016.2
20260505090509 64 111 0.9 2.6 0.00 0.00 0.00 100 1016.3
20260505090049 64 111 0.9 2.6 0.00 0.00 0.00 100 1016.3
20260505090010 64 46 0.0 1.7 0.00 0.00 0.00 100 1016.3
20260505085935 64 46 0.0 1.7 0.00 0.00 0.00 100 1016.3
20260505085549 64 46 0.0 1.7 0.00 0.00 0.00 100 1016.3
20260505085509 64 99 0.9 2.6 0.00 0.00 0.00 100 1016.2
20260505085059 65 81 0.0 0.9 0.00 0.00 0.00 100 1016.3
20260505085049 64 99 0.9 2.6 0.00 0.00 0.00 100 1016.2
20260505084802 65 81 0.0 0.9 0.00 0.00 0.00 100 1016.3
20260505084549 65 81 0.0 0.9 0.00 0.00 0.00 100 1016.3
20260505084513 65 64 0.0 0.9 0.00 0.00 0.00 100 1016.4
20260505084049 65 64 0.0 0.9 0.00 0.00 0.00 100 1016.4
20260505083549 65 40 0.0 0.9 0.00 0.00 0.00 100 1016.4
20260505083435 65 74 0.0 2.6 0.00 0.00 0.00 100 1016.2
20260505083202 65 87 1.7 3.5 0.00 0.00 0.00 100 1016.2
20260505083049 65 74 0.0 2.6 0.00 0.00 0.00 100 1016.2
20260505082549 65 81 1.7 2.6 0.00 0.00 0.00 100 1016.2
20260505082505 65 87 1.7 3.5 0.00 0.00 0.00 100 1016.2
20260505082049 65 87 1.7 3.5 0.00 0.00 0.00 100 1016.2
20260505081549 65 64 1.7 3.5 0.00 0.00 0.00 100 1016.2
20260505081323 65 97 0.9 2.6 0.00 0.00 0.00 100 1016.1
20260505081049 65 97 0.9 2.6 0.00 0.00 0.00 100 1016.1
20260505081006 65 112 2.6 2.6 0.00 0.00 0.00 100 1016.2
20260505080549 65 112 2.6 2.6 0.00 0.00 0.00 100 1016.2
20260505080515 65 104 0.9 1.7 0.00 0.00 0.00 100 1016.3
20260505080049 65 104 0.9 1.7 0.00 0.00 0.00 100 1016.3
20260505075549 65 73 0.0 0.9 0.00 0.00 0.00 100 1016.4
20260505075059 65 63 0.0 0.0 0.00 0.00 0.00 100 1016.6
20260505075049 65 63 0.0 0.0 0.00 0.00 0.00 100 1016.5
20260505074549 65 63 0.0 0.0 0.00 0.00 0.00 100 1016.6
20260505074156 65 45 0.0 1.7 0.00 0.00 0.00 100 1016.6
20260505074049 65 45 0.0 1.7 0.00 0.00 0.00 100 1016.6
20260505074019 66 57 0.0 0.9 0.00 0.00 0.00 100 1016.4
20260505073631 66 53 0.0 2.6 0.00 0.00 0.00 100 1016.6
20260505073555 66 53 0.0 2.6 0.00 0.00 0.00 100 1016.6
20260505073549 66 57 0.0 0.9 0.00 0.00 0.00 100 1016.4
20260505073519 66 53 0.0 2.6 0.00 0.00 0.00 100 1016.6
20260505073049 66 53 0.0 2.6 0.00 0.00 0.00 100 1016.6
20260505073014 66 73 0.9 1.7 0.00 0.00 0.00 100 1016.6
20260505072914 66 73 0.9 1.7 0.00 0.00 0.00 100 1016.6
20260505072549 66 73 0.9 1.7 0.00 0.00 0.00 100 1016.6
20260505072516 66 84 0.9 2.6 0.00 0.00 0.00 100 1016.5
20260505072155 66 60 0.0 4.3 0.00 0.00 0.00 100 1016.4
20260505072049 66 84 0.9 2.6 0.00 0.00 0.00 100 1016.5
20260505071549 66 68 0.0 3.5 0.00 0.00 0.00 100 1016.5
20260505071454 66 60 0.0 4.3 0.00 0.00 0.00 100 1016.4
20260505071049 66 60 0.0 4.3 0.00 0.00 0.00 100 1016.4
20260505070839 67 50 1.7 2.6 0.00 0.00 0.00 100 1016.4
20260505070549 67 50 1.7 2.6 0.00 0.00 0.00 100 1016.4
20260505070532 67 112 0.9 3.5 0.00 0.00 0.00 100 1016.6
20260505070050 67 112 0.9 3.5 0.00 0.00 0.00 100 1016.6
20260505065550 67 84 0.9 4.3 0.00 0.00 0.00 100 1016.8
20260505065521 67 81 2.6 3.5 0.00 0.00 0.00 100 1016.6
20260505065050 67 81 2.6 3.5 0.00 0.00 0.00 100 1016.6
20260505064550 67 81 1.7 3.5 0.00 0.00 0.00 100 1016.7
20260505064208 67 70 1.7 3.5 0.00 0.00 0.00 100 1016.8
20260505064050 67 70 1.7 3.5 0.00 0.00 0.00 100 1016.8
20260505063937 67 52 0.0 2.6 0.00 0.00 0.00 100 1016.9
20260505063550 67 52 0.0 2.6 0.00 0.00 0.00 100 1016.9
20260505063455 67 71 1.7 4.3 0.00 0.00 0.00 100 1017.0
20260505063349 67 71 1.7 4.3 0.00 0.00 0.00 100 1017.0
20260505063050 67 71 1.7 4.3 0.00 0.00 0.00 100 1017.0
20260505063015 68 90 0.9 3.5 0.00 0.00 0.00 100 1017.2
20260505062634 68 104 1.7 3.5 0.00 0.00 0.00 100 1017.5
20260505062550 68 90 0.9 3.5 0.00 0.00 0.00 100 1017.2
20260505062112 68 71 2.6 3.5 0.00 0.00 0.00 100 1017.4
20260505062050 68 104 1.7 3.5 0.00 0.00 0.00 100 1017.5
20260505062007 68 45 1.7 2.6 0.00 0.00 0.00 100 1017.3
20260505061550 68 45 1.7 2.6 0.00 0.00 0.00 100 1017.3
20260505061345 68 80 1.7 4.3 0.00 0.00 0.00 100 1017.4
20260505061050 68 80 1.7 4.3 0.00 0.00 0.00 100 1017.4
20260505060607 68 63 0.9 3.5 0.00 0.00 0.00 100 1017.4
20260505060550 68 88 0.9 2.6 0.00 0.00 0.00 100 1017.5
20260505060050 68 63 0.9 3.5 0.00 0.00 0.00 100 1017.4
20260505055550 68 71 2.6 3.5 0.00 0.00 0.00 100 1017.4
20260505055459 68 47 0.9 5.2 0.00 0.00 0.00 100 1017.3
20260505055050 68 47 0.9 5.2 0.00 0.00 0.00 100 1017.3
20260505054550 68 67 1.7 3.5 0.00 0.00 0.00 100 1017.5
20260505054050 68 28 0.0 4.3 0.00 0.00 0.00 100 1017.5
20260505053550 68 80 0.9 2.6 0.00 0.00 0.00 100 1017.8
20260505053135 68 112 0.9 3.5 0.00 0.00 0.00 100 1017.7
20260505053050 68 88 0.0 2.6 0.00 0.00 0.00 100 1017.7
20260505052550 68 112 0.9 3.5 0.00 0.00 0.00 100 1017.7
20260505052312 67 47 0.9 1.7 0.00 0.00 0.00 100 1017.8
20260505052050 68 40 0.0 2.6 0.00 0.00 0.00 100 1017.8
20260505051550 67 47 0.9 1.7 0.00 0.00 0.00 100 1017.8
20260505051506 67 1 0.0 2.6 0.00 0.00 0.00 100 1017.7
20260505051050 67 1 0.0 2.6 0.00 0.00 0.00 100 1017.7
20260505050704 67 64 1.7 3.5 0.00 0.00 0.00 100 1017.7
20260505050550 67 64 1.7 3.5 0.00 0.00 0.00 100 1017.7
20260505050439 67 71 2.6 2.6 0.00 0.00 0.00 100 1017.9
20260505041724 68 111 2.6 2.6 0.00 0.00 0.00 100 1017.9
20260505041550 68 85 0.0 2.6 0.00 0.00 0.00 100 1018.0
20260505041050 68 111 2.6 2.6 0.00 0.00 0.00 100 1017.9
20260505041038 68 81 0.9 1.7 0.00 0.00 0.00 100 1018.1
20260505040550 68 81 0.9 1.7 0.00 0.00 0.00 100 1018.1
20260505040050 68 87 0.9 2.6 0.00 0.00 0.00 100 1018.0
20260505035956 68 59 0.9 2.6 0.00 0.00 0.00 100 1018.0
20260505035708 68 59 0.9 2.6 0.00 0.00 0.00 100 1018.0
20260505035550 68 59 0.9 2.6 0.00 0.00 0.00 100 1018.0
20260505035050 69 102 0.9 2.6 0.00 0.00 0.00 100 1018.0
20260505034734 69 81 1.7 3.5 0.00 0.00 0.00 100 1018.1
20260505034550 69 81 1.7 3.5 0.00 0.00 0.00 100 1018.1
20260505034307 69 104 2.6 3.5 0.00 0.00 0.00 100 1018.2
20260505034050 69 75 1.7 2.6 0.00 0.00 0.00 100 1018.2
20260505033634 69 82 2.6 3.5 0.00 0.00 0.00 100 1018.2
20260505033550 69 104 2.6 3.5 0.00 0.00 0.00 100 1018.2
20260505033504 69 81 0.9 3.5 0.00 0.00 0.00 100 1018.2
20260505033050 69 82 2.6 3.5 0.00 0.00 0.00 100 1018.2
20260505033015 69 81 0.9 3.5 0.00 0.00 0.00 100 1018.2
20260505032550 69 81 0.9 3.5 0.00 0.00 0.00 100 1018.2
20260505032305 70 78 0.9 2.6 0.00 0.00 0.00 100 1018.2
20260505032050 70 78 0.9 2.6 0.00 0.00 0.00 100 1018.2
20260505031737 70 43 1.7 2.6 0.00 0.00 0.00 100 1018.4
20260505031550 70 91 1.7 2.6 0.00 0.00 0.00 100 1018.2
20260505031458 70 43 1.7 2.6 0.00 0.00 0.00 100 1018.4
20260505031050 70 43 1.7 2.6 0.00 0.00 0.00 100 1018.4
20260505030841 71 126 1.7 4.3 0.00 0.00 0.00 100 1018.3
20260505030708 71 101 1.7 5.2 0.00 0.00 0.00 100 1018.3
20260505030550 70 81 0.0 3.5 0.00 0.00 0.00 100 1018.4
20260505030050 71 126 1.7 4.3 0.00 0.00 0.00 100 1018.3
20260505025551 71 95 2.6 4.3 0.00 0.00 0.00 100 1018.3
20260505025051 71 101 1.7 5.2 0.00 0.00 0.00 100 1018.3
20260505024551 71 60 3.5 7.0 0.00 0.00 0.00 100 1018.1
20260505024227 71 130 2.6 7.0 0.00 0.00 0.00 100 1018.0
20260505024051 71 130 2.6 7.0 0.00 0.00 0.00 100 1018.0
20260505023551 71 119 4.3 7.0 0.00 0.00 0.00 100 1018.0
20260505023457 72 102 3.5 6.1 0.00 0.00 0.00 100 1018.0
20260505023051 72 102 3.5 6.1 0.00 0.00 0.00 100 1018.0
20260505022551 71 105 1.7 5.2 0.00 0.00 0.00 100 1018.0
20260505022051 72 56 2.6 7.0 0.00 0.00 0.00 100 1018.0
20260505022008 72 67 3.5 6.1 0.00 0.00 0.00 100 1017.9
20260505021551 72 67 3.5 6.1 0.00 0.00 0.00 100 1017.9
20260505021051 72 98 3.5 6.1 0.00 0.00 0.00 100 1017.9
20260505021008 72 66 4.3 7.0 0.00 0.00 0.00 100 1017.9
20260505020551 72 66 4.3 7.0 0.00 0.00 0.00 100 1017.9
20260505020051 73 80 6.1 7.8 0.00 0.00 0.00 100 1017.8
20260505015912 73 97 4.3 7.8 0.00 0.00 0.00 100 1018.0
20260505015722 73 118 2.6 6.1 0.00 0.00 0.00 100 1017.9
20260505015551 73 97 4.3 7.8 0.00 0.00 0.00 100 1018.0
20260505015051 73 118 2.6 6.1 0.00 0.00 0.00 100 1017.9
20260505015008 73 115 4.3 7.8 0.00 0.00 0.00 100 1017.9
20260505014740 73 104 3.5 7.0 0.00 0.00 0.00 100 1017.8
20260505014551 73 115 4.3 7.8 0.00 0.00 0.00 100 1017.9
20260505014051 73 104 3.5 7.0 0.00 0.00 0.00 100 1017.8
20260505013935 74 94 3.5 6.1 0.00 0.00 0.00 100 1017.6
20260505013557 73 71 4.3 9.6 0.00 0.00 0.00 100 1017.4
20260505013551 74 94 3.5 6.1 0.00 0.00 0.00 100 1017.6
20260505013220 73 71 4.3 9.6 0.00 0.00 0.00 100 1017.4
20260505013217 73 85 3.5 7.0 0.00 0.00 0.00 100 1017.6
20260505013051 73 71 4.3 9.6 0.00 0.00 0.00 100 1017.4
20260505012551 73 85 3.5 7.0 0.00 0.00 0.00 100 1017.6
20260505012051 73 57 1.7 7.0 0.00 0.00 0.00 100 1017.7
20260505012012 74 108 2.6 7.0 0.00 0.00 0.00 100 1017.6
20260505011551 74 108 2.6 7.0 0.00 0.00 0.00 100 1017.6
20260505011137 74 118 5.2 7.0 0.00 0.00 0.00 100 1017.3
20260505011051 74 81 5.2 7.0 0.00 0.00 0.00 100 1017.4
20260505010551 74 118 5.2 7.0 0.00 0.00 0.00 100 1017.3
20260505010051 74 88 4.3 6.1 0.00 0.00 0.00 100 1017.3
20260505005551 74 115 3.5 8.7 0.00 0.00 0.00 100 1017.3
20260505005138 75 88 6.1 8.7 0.00 0.00 0.00 100 1017.3
20260505005051 75 91 4.3 7.8 0.00 0.00 0.00 100 1017.2
20260505004551 75 88 6.1 8.7 0.00 0.00 0.00 100 1017.3
20260505004051 75 119 2.6 9.6 0.00 0.00 0.00 100 1017.1
20260505003948 76 102 4.3 8.7 0.00 0.00 0.00 100 1017.1
20260505003551 76 126 5.2 9.6 0.00 0.00 0.00 100 1017.2
20260505003051 76 102 4.3 8.7 0.00 0.00 0.00 100 1017.1
20260505002551 76 111 6.1 8.7 0.00 0.00 0.00 100 1017.1
20260505002051 76 116 2.6 11.3 0.00 0.00 0.00 100 1017.1
20260505002049 77 119 4.3 7.8 0.00 0.00 0.00 100 1016.9
20260505001551 77 119 4.3 7.8 0.00 0.00 0.00 100 1016.9
20260505001459 76 59 3.5 12.2 0.00 0.00 0.00 100 1016.5
20260505001051 76 105 5.2 9.6 0.00 0.00 0.00 100 1016.7
20260505000551 76 59 3.5 12.2 0.00 0.00 0.00 100 1016.5
20260505000051 77 91 7.8 9.6 0.00 0.00 0.00 100 1016.3
20260505000011 77 116 7.0 8.7 0.00 0.00 0.00 100 1016.3
20260504235604 77 105 5.2 10.4 0.00 0.00 0.00 100 1016.3
20260504235551 77 116 7.0 8.7 0.00 0.00 0.00 100 1016.3